User: anonymous   Login
Location: Unspecified
(0.0000°N, 0.0000°E)
Time: 00:05:11
(UTC+00:00)
Language:

RS-15 - Orbit

View from above orbital plane
View from above orbital plane
View from above satellite
View from above satellite

Ground track
Ground track

The orbit data is extracted from the following two-line orbital elements,

1 23439U 94085A   17172.55838394 -.00000008 +00000-0 +98859-3 0  9991
2 23439 064.8136 212.0985 0167067 245.0605 271.2158 11.27566817925902
Epoch (UTC): 21 June 2017 13:24:04
Eccentricity: 0.0167067
inclination: 64.8136°
perigee height: 1882 km
apogee height: 2163 km
right ascension of ascending node: 212.0985°
argument of perigee: 245.0605°
revolutions per day: 11.27566817
mean anomaly at epoch: 271.2158°
orbit number at epoch: 92590

The dashed part of the orbit path shows where the satellite is in the earth's shadow,  

DLR